Temp_Advection
nan nan nan nan nan nan nan nan nan nan nan nan nan nan nan nan nan nan nan nan nan nan nan nan nan nan nan nan nan nan nan nan nan nan nan nan nan nan nan nan nan nan nan nan nan nan nan nan nan
nan -0 -0 -0 0 0 -0 -0 0 -0 0 0 -0 -0 -0 -0 -1 -0 1 0 0 -0 -0 -0 0 -0 -0 0 0 -0 0 0 0 0 -0 -0 -0 0 0 -0 -0 0 0 -0 0 0 -0 -0 nan
nan -1 -0 -0 0 -0 -0 -0 -0 0 -1 -0 -0 -0 -1 -1 -1 -1 -1 -0 0 -0 -0 -0 -0 0 0 0 0 0 0 0 0 -0 -0 -0 -0 0 -0 -0 -0 -0 0 -0 0 0 0 -0 nan
nan -0 0 0 -0 -1 -0 -0 -0 -0 0 -0 -0 -0 -0 -1 -2 -2 -1 -1 -0 -0 -0 -0 0 0 -0 0 0 0 0 0 0 -0 -0 -0 -0 0 0 -0 -0 -0 0 0 0 0 -0 -0 nan
nan -0 0 -0 -0 -0 -0 0 -2 -1 -0 -0 -0 -0 -0 -0 0 -0 -0 -0 -1 -0 -0 0 0 0 0 -0 0 0 -0 -0 0 0 -0 -0 -0 -0 0 -0 -0 0 0 0 0 0 0 -0 nan
nan -0 -0 -0 -0 -1 0 -0 -0 -1 -1 -1 -0 -0 -0 0 -0 -0 -0 -0 -0 -1 -1 -0 0 0 -0 -0 -0 -0 -0 -0 -0 -0 0 -0 -0 -0 0 0 -0 0 0 0 0 0 -0 -0 nan
nan -0 -0 0 -0 0 0 -0 -1 -0 -0 -0 -1 -0 0 2 1 0 -0 -0 0 -0 -1 -1 -0 -0 -0 -0 -0 -0 -0 -0 -0 -0 0 0 -0 -0 -0 0 -0 0 0 -0 -0 0 -0 -0 nan
nan -0 -0 -0 -0 0 0 -0 -0 0 0 -1 -2 -0 -1 0 1 1 1 1 1 0 -0 -0 -1 -0 -0 -0 -0 -0 -0 -0 -0 -0 -0 0 0 0 -0 -0 -0 -0 0 0 0 -0 0 -0 nan
nan -0 -0 -0 0 0 0 0 -0 -0 -0 0 0 -1 -2 -1 0 0 1 1 1 0 0 0 -0 -1 -0 -0 -0 -0 -0 -0 0 -0 -0 -0 0 0 0 0 -0 -0 -0 -0 0 0 0 0 nan
nan -0 -1 -0 0 -0 -0 0 0 -0 -0 -0 -0 -0 0 -0 -0 -1 -1 -1 -0 -0 0 0 0 -0 -0 -0 -0 -0 -0 -0 -0 -0 -0 -0 -0 -0 0 0 0 0 -0 -0 -0 0 0 0 nan
nan -0 0 -0 -0 -1 -0 -0 -0 -0 0 0 -0 -1 -0 -0 -1 -1 -1 -1 -1 -0 -1 -0 -0 -0 -0 0 0 -0 -0 -0 -0 -0 -0 -0 -0 -0 -0 0 0 0 0 0 -0 0 0 0 nan
nan -0 -1 -0 -1 -1 -0 -0 0 -0 -0 -0 -0 -1 -2 -2 -1 -1 -1 -1 -0 -0 -0 -0 -0 -0 -0 -0 0 0 0 0 -0 -0 -0 -0 -0 -0 -0 -0 -0 0 0 0 0 0 0 0 nan
nan -0 -1 0 0 -1 -1 -0 -0 -0 -0 -0 -0 -0 -1 -1 -1 -0 -0 -0 -0 -0 -0 0 -0 -0 -0 -0 -0 -0 0 0 -0 -0 -0 0 -0 -0 -0 -0 -0 0 0 0 0 0 0 0 nan
nan 0 -1 -0 -3 -1 -0 0 0 0 0 -0 -0 -0 -0 -1 -0 -0 0 -0 -0 -0 -0 0 0 -0 -0 -0 -0 -0 -0 -0 -0 -0 -0 -0 0 -0 -0 -0 -0 -0 -0 -0 -0 0 0 0 nan
nan 0 -0 -0 -2 -1 -2 -0 -0 0 0 0 0 -0 0 -0 -1 -1 -1 -1 -1 -0 0 0 0 -0 0 -0 -0 -0 -0 -0 -0 -0 -0 -0 -0 0 0 0 -0 -0 -0 0 0 0 0 0 nan
nan -0 -0 -0 -0 -1 -1 0 -0 1 0 -0 -0 0 -0 -0 -1 -1 -1 -1 -0 0 0 0 0 -0 0 0 -0 -0 -0 0 0 -0 -0 -0 -0 -0 -0 0 -0 -0 0 0 0 0 0 -0 nan
nan -0 -0 -0 0 -0 0 0 0 2 0 0 -1 -0 -0 -0 -0 -0 -1 -0 0 1 0 0 -0 -0 0 0 0 0 0 0 -0 -0 -0 -0 0 -0 -0 -0 -0 -0 0 0 0 0 -0 0 nan
nan -0 -0 -0 -0 -0 0 1 -0 1 0 0 -0 -1 -0 -0 -1 -1 -0 0 1 0 -0 0 -1 -0 0 0 0 0 0 -0 -0 -0 -0 0 -0 -0 0 0 0 -0 0 -0 0 0 -0 0 nan
nan -0 -0 -1 -0 0 0 0 1 0 0 -0 -0 0 0 -1 -0 -0 0 0 0 -0 -0 -0 -0 0 0 0 -0 -0 -0 -0 -0 -0 0 -0 -0 0 0 -0 -0 -0 0 0 0 0 -0 0 nan
nan 0 -0 -1 -0 -0 0 1 -1 -1 -1 -0 -1 -1 -0 -1 0 0 0 0 0 -0 -0 -0 -0 0 -0 -0 -0 -0 -0 0 0 0 0 -0 0 0 0 0 0 0 0 0 0 0 0 0 nan
nan -0 -0 -0 -0 0 -0 -0 -0 0 -0 -1 -2 0 0 0 0 -0 0 0 0 -0 -0 -0 -0 -0 -0 -0 0 0 0 0 0 0 0 -0 -0 0 0 0 -0 0 0 0 0 0 0 0 nan
nan -2 -0 0 -0 0 0 0 -0 0 -0 -1 -1 -0 -0 0 -1 -0 0 -0 -0 0 0 0 0 0 -0 0 0 0 0 0 0 0 0 0 0 0 0 0 0 0 0 0 0 0 0 0 nan
nan -0 -0 0 -0 -0 -0 -0 -0 0 0 -0 -1 -1 0 -0 -0 -0 -0 0 0 0 0 0 0 0 0 0 0 0 0 0 0 0 0 0 0 0 0 0 0 0 0 0 0 0 0 -0 nan
nan 0 -1 -1 -0 -0 -0 -0 -0 -0 -0 -0 -0 1 0 -0 -1 -1 1 1 0 0 0 0 0 0 0 0 0 0 0 0 0 0 0 0 0 -0 -0 0 0 -0 0 0 0 0 0 0 nan
nan -1 -0 0 -0 -0 -0 -0 -0 -0 -0 -0 -1 -1 -1 -2 -1 1 0 -0 -0 -0 -0 -0 -0 0 0 0 0 0 0 0 0 0 0 0 -0 -0 0 0 0 0 0 0 1 1 0 0 nan
nan -1 -0 -0 -0 -0 -0 -0 -0 -1 -0 -0 -1 -0 -1 -1 1 -0 -1 -1 -1 -1 -1 -1 -0 0 -0 -0 0 0 0 1 0 0 0 0 0 0 0 0 0 0 1 0 0 0 0 0 nan
nan -0 -0 0 -0 0 -0 -1 -0 0 0 -0 0 1 0 1 1 -1 -1 -1 -1 -1 -1 -0 -0 0 0 0 0 1 1 0 0 1 1 0 0 0 0 0 -0 -0 1 1 0 0 0 0 nan
nan 0 0 -0 -0 0 -0 -0 0 0 -0 -0 0 0 -1 -1 -1 -1 -1 -1 -1 -1 0 0 -0 -0 1 1 1 1 1 1 1 1 0 0 0 0 -0 -0 0 0 0 0 0 0 -0 0 nan
nan 0 -0 -0 0 0 -0 -0 -0 -1 -0 -0 0 0 -0 1 -1 -2 -2 -1 0 0 0 0 0 1 1 1 1 1 1 1 1 0 0 0 0 0 0 -0 0 0 0 0 0 -0 -0 0 nan
nan nan nan nan nan nan nan nan nan nan nan nan nan nan nan nan nan nan nan nan nan nan nan nan nan nan nan nan nan nan nan nan nan nan nan nan nan nan nan nan nan nan nan nan nan nan nan nan nan
Wind_Speed
9 5 2 1 1 4 3 5 2 4 5 6 13 7 6 10 3 2 23 31 33 32 31 28 25 23 23 22 20 20 20 18 17 15 13 11 11 13 14 15 16 16 17 19 20 22 19 16 20
10 3 5 3 2 1 3 3 13 13 12 25 21 17 4 6 11 21 34 24 32 31 30 29 26 24 23 21 20 19 18 17 15 15 13 11 11 14 16 16 15 15 18 20 21 18 16 17 19
14 8 4 2 2 2 3 3 11 13 14 12 8 15 8 11 21 34 29 32 32 30 30 28 27 25 23 21 21 19 17 16 15 14 13 14 15 16 16 16 15 16 19 19 18 16 17 21 22
5 0 2 3 4 6 3 6 5 13 12 20 20 6 10 22 31 25 27 34 32 31 29 28 27 25 23 21 20 17 16 15 14 14 14 15 16 17 17 17 16 16 17 18 19 17 20 21 19
4 2 2 4 6 5 7 3 27 15 12 19 18 12 20 14 23 31 30 35 32 32 30 28 26 24 22 20 19 17 16 15 14 14 14 14 15 15 16 16 16 15 16 17 19 19 21 21 19
4 2 4 4 8 9 8 7 17 17 20 24 20 16 6 22 28 26 27 36 30 31 29 27 25 23 22 21 19 17 16 15 14 14 14 13 14 14 15 15 14 15 15 17 18 19 20 19 17
3 3 3 3 4 7 6 23 17 11 15 10 24 10 19 34 27 27 26 33 28 26 26 27 25 23 22 21 19 18 17 16 15 14 13 12 12 13 14 14 14 13 14 16 17 18 18 19 16
6 3 2 4 4 4 9 17 23 17 8 20 29 8 25 36 34 32 32 33 32 31 26 25 25 24 23 21 20 18 18 18 16 14 13 12 10 11 12 13 13 13 12 14 15 17 18 18 16
6 3 3 2 0 5 8 11 16 11 12 2 9 26 37 41 39 36 36 34 32 31 29 27 25 24 23 22 20 19 18 17 17 15 14 12 12 12 11 12 12 12 11 12 14 15 16 19 16
4 3 8 5 1 9 10 16 11 6 12 10 21 26 30 48 44 40 39 36 31 29 29 27 25 24 24 23 21 19 18 18 17 15 14 14 12 11 11 11 10 10 11 12 13 14 16 15 16
7 4 2 5 10 19 13 10 4 6 4 6 25 29 42 43 42 40 37 33 31 25 25 27 25 24 24 23 21 19 18 17 17 16 14 12 10 11 11 8 10 11 12 12 12 13 15 15 18
3 9 17 12 23 15 8 9 3 16 11 18 25 26 38 42 42 38 33 31 28 26 20 23 24 24 23 22 20 17 17 17 17 17 17 14 12 9 8 7 9 13 12 12 10 12 13 16 14
6 5 22 27 8 26 30 18 8 6 18 19 23 24 27 39 40 35 28 28 28 27 25 24 23 24 24 22 18 15 16 17 20 17 16 14 11 9 7 10 13 12 10 10 9 12 11 13 12
5 14 16 7 37 32 16 6 5 12 12 12 25 27 24 34 38 35 32 33 30 29 26 27 24 17 21 20 15 18 16 18 17 15 15 14 12 10 7 10 12 9 7 6 8 10 7 12 10
14 4 7 3 20 9 20 3 4 18 12 20 31 32 30 23 36 36 34 31 28 30 26 31 26 20 20 18 15 18 15 17 15 15 14 12 13 12 11 10 12 11 9 10 14 13 12 11 9
5 4 1 6 8 22 15 6 7 25 21 34 33 33 35 35 31 39 35 31 30 27 33 30 30 25 23 21 19 17 16 15 15 14 18 14 12 13 13 13 15 16 13 9 11 12 11 9 8
5 4 5 5 7 8 9 5 8 27 30 28 28 29 33 36 36 38 39 33 29 34 32 32 35 29 26 23 23 22 18 17 16 18 21 17 15 14 9 14 14 14 16 13 13 13 10 10 11
6 5 8 4 4 7 8 7 13 24 26 27 31 27 33 30 38 35 33 29 29 36 38 29 36 30 28 24 25 25 23 20 12 17 21 22 18 15 12 10 13 16 16 16 15 14 13 10 8
7 8 8 17 7 5 9 8 21 25 17 18 23 22 32 36 36 35 32 25 32 35 37 33 38 31 29 29 28 30 27 27 19 16 15 20 16 16 14 12 11 12 16 15 15 14 12 11 9
14 12 14 10 12 7 6 11 19 20 27 33 35 40 32 37 34 37 35 30 32 34 36 38 34 31 34 31 26 23 21 29 24 19 15 18 18 19 17 15 13 10 14 17 16 15 11 11 12
14 5 8 6 8 2 5 6 6 18 16 29 39 36 30 40 36 39 39 34 33 33 31 34 31 29 29 27 26 25 21 20 27 28 25 20 19 19 19 18 16 14 15 16 15 12 12 11 11
9 20 14 5 4 3 3 5 6 4 17 23 34 25 23 32 38 39 40 38 38 36 33 32 29 29 29 27 26 27 28 27 25 25 24 25 24 22 20 19 18 16 15 18 15 13 12 12 13
11 11 7 3 4 2 5 4 7 2 3 10 19 38 31 29 40 42 39 40 38 37 36 34 32 32 30 30 29 28 30 27 22 22 24 27 25 24 23 21 20 18 18 20 17 18 16 16 15
7 6 6 6 4 3 6 5 7 3 6 5 16 30 36 32 42 41 39 39 39 37 36 35 35 34 32 30 30 28 31 30 28 26 28 26 26 26 27 26 24 23 20 20 21 18 17 18 19
4 6 5 6 5 7 6 3 9 5 8 5 9 25 30 42 42 43 42 42 40 39 37 35 35 36 34 33 32 29 29 31 31 29 29 29 29 29 29 28 26 25 23 24 23 22 17 15 20
7 8 6 7 3 7 1 2 7 10 15 12 17 9 29 37 43 45 43 39 38 37 34 33 34 36 36 33 32 30 24 26 29 29 28 29 29 28 29 28 27 26 26 23 25 26 25 20 21
10 3 7 6 3 3 4 7 5 1 3 8 20 15 24 39 44 46 41 37 36 34 35 33 30 32 34 33 30 31 29 26 25 25 27 27 29 30 29 26 27 25 25 24 25 28 28 26 21
8 5 1 3 2 4 5 5 6 7 10 9 10 14 23 33 37 45 41 36 36 34 32 35 32 27 28 31 29 29 28 26 23 23 24 26 27 29 29 27 22 18 18 19 22 24 23 23 22
3 1 3 5 5 5 3 6 7 11 9 12 2 8 15 32 40 44 42 33 33 35 36 36 34 33 34 30 26 27 23 20 17 19 20 21 21 22 24 21 19 19 17 15 16 17 17 18 17
6 9 5 5 7 4 5 8 6 11 8 9 9 6 9 23 47 46 42 34 37 37 36 35 34 29 29 26 21 20 16 15 15 18 19 19 18 20 20 20 20 17 15 15 15 14 14 15 15
Wind_Direction
92 86 121 220 98 79 23 271 289 169 76 76 113 143 140 94 149 188 150 162 162 161 160 160 156 154 153 152 147 139 132 131 127 121 111 108 111 120 120 118 114 113 117 116 116 120 121 118 125
67 174 111 255 124 50 223 247 60 54 120 105 96 114 58 82 113 135 150 161 162 161 161 162 158 157 153 153 152 145 138 130 124 117 102 104 115 127 123 118 114 119 123 125 126 122 127 130 129
98 106 42 107 22 218 199 160 138 153 180 139 105 92 102 114 135 144 157 160 163 162 159 158 159 157 153 150 150 145 142 135 131 123 105 105 114 123 124 120 119 120 127 126 128 133 130 132 126
158 132 324 26 246 251 243 168 127 153 118 107 111 66 81 139 142 147 153 162 164 160 159 157 158 157 155 151 152 150 146 140 137 129 113 110 112 119 122 122 122 124 128 126 132 128 131 130 128
192 208 71 243 311 310 163 315 153 138 129 111 108 111 128 158 151 149 155 165 166 160 161 158 161 161 161 159 157 153 150 148 145 138 125 117 122 121 125 127 127 127 132 129 134 132 138 134 128
235 80 58 14 321 330 36 342 110 98 122 114 103 117 100 165 155 151 159 168 169 164 164 161 165 164 164 163 161 157 155 154 150 145 137 124 126 123 130 132 134 134 136 138 139 144 147 140 137
255 107 157 154 309 20 14 12 32 115 134 128 126 117 140 157 158 156 158 161 167 167 169 167 167 167 166 166 164 162 159 157 151 147 144 132 129 127 133 136 138 139 143 144 145 146 151 158 146
187 99 211 189 166 34 135 65 32 29 47 143 137 166 159 161 159 160 155 159 161 167 172 174 171 171 170 170 170 165 165 160 155 149 144 135 133 133 136 140 141 139 145 149 148 148 151 159 162
179 72 296 256 16 96 78 92 59 55 100 149 202 157 159 165 166 169 164 166 166 171 175 176 178 176 174 173 172 169 167 163 157 151 144 141 136 138 140 138 138 138 144 144 142 144 153 157 167
128 161 219 201 13 154 126 114 100 71 61 75 112 141 155 164 173 172 171 171 175 178 183 184 180 181 176 175 174 171 171 168 165 154 151 145 133 128 140 149 136 139 143 145 145 144 151 161 168
179 200 114 245 109 131 113 104 75 109 34 165 148 143 150 158 169 170 176 176 177 181 186 188 183 184 181 176 173 174 171 168 165 161 146 138 148 157 141 148 166 155 151 149 152 154 163 165 171
206 242 265 260 126 118 93 122 132 156 190 150 159 159 163 165 174 179 181 180 179 176 173 178 189 189 185 179 173 174 174 168 164 164 154 141 130 127 138 149 158 156 157 153 147 165 167 177 180
252 233 239 249 176 138 160 165 169 214 136 153 171 179 173 183 182 184 187 185 183 181 181 177 180 190 191 178 170 182 181 180 163 159 159 150 143 126 119 140 154 161 164 165 178 168 185 193 215
306 254 240 212 140 159 159 142 103 205 172 171 174 188 201 186 186 183 186 185 192 193 190 183 185 187 185 176 171 172 171 168 173 170 167 162 159 154 142 156 164 181 204 213 210 206 198 201 219
334 227 250 300 138 159 109 169 227 190 157 144 170 188 204 209 191 192 196 194 201 206 200 191 189 187 178 171 168 180 177 177 181 189 185 181 181 180 174 171 186 198 214 221 211 219 223 233 240
333 1 352 267 184 173 169 225 190 183 181 184 179 185 200 208 212 205 208 206 205 205 208 202 196 194 188 184 177 182 194 203 206 204 202 198 193 198 200 193 201 210 220 212 205 208 217 231 216
8 256 249 279 212 132 230 241 175 188 196 193 195 195 200 209 217 217 212 222 212 204 213 208 200 198 197 196 191 193 201 205 222 218 207 209 205 209 212 210 214 216 218 221 227 224 227 251 224
282 339 315 248 241 181 232 246 172 192 199 201 204 198 207 210 218 221 216 219 215 200 212 221 205 203 201 205 201 199 204 204 210 209 215 211 213 215 216 212 220 225 224 229 230 232 240 226 222
258 271 270 281 254 168 221 239 184 194 206 219 207 214 206 214 213 217 217 204 210 210 211 212 202 207 203 207 212 210 205 209 213 205 198 208 223 222 222 224 232 237 231 231 223 230 220 214 220
275 276 279 260 261 161 231 247 185 183 207 198 203 225 212 210 211 208 210 202 203 208 217 213 214 216 207 210 211 212 211 217 218 220 206 216 225 228 230 237 251 256 238 226 227 223 219 227 220
281 242 276 249 297 254 120 319 145 209 221 200 218 223 224 206 208 205 202 204 203 207 209 211 217 212 211 216 214 215 214 212 220 224 226 225 235 245 248 241 254 259 246 231 225 226 229 239 236
266 277 270 312 14 223 152 260 310 103 208 198 209 220 223 208 210 207 201 203 208 217 219 223 226 218 219 227 227 221 223 222 213 213 222 229 238 243 248 250 255 260 247 234 229 232 231 238 246
243 279 250 278 335 59 306 88 268 122 160 198 197 219 218 207 205 207 206 211 213 213 216 219 223 225 229 230 233 237 231 235 234 229 228 233 237 244 251 255 258 264 250 238 232 232 233 241 248
255 278 9 38 61 350 248 124 283 230 216 140 223 211 205 197 202 212 216 214 213 216 217 219 221 226 232 234 237 242 238 235 232 235 236 232 236 245 253 258 258 259 253 239 237 239 251 255 253
58 53 339 348 357 238 324 64 240 230 214 218 170 189 186 191 204 211 213 214 215 216 219 224 225 227 228 231 235 240 241 239 237 235 235 237 241 242 247 251 256 257 255 248 244 235 240 263 256
256 156 159 222 223 277 5 236 250 223 199 197 164 213 196 197 207 211 209 213 217 218 220 225 229 232 231 230 234 236 240 242 244 241 237 238 242 248 247 251 260 262 262 251 242 239 245 266 268
267 218 187 125 141 47 263 290 330 310 215 213 201 230 200 203 204 208 206 208 210 217 221 225 230 234 238 236 235 235 235 237 243 247 242 239 245 250 252 251 258 264 263 254 242 246 250 258 261
178 179 316 5 226 283 294 290 237 222 240 200 183 193 199 208 216 206 207 207 214 219 226 228 231 237 242 239 240 238 240 240 246 244 246 242 245 250 251 258 254 255 257 249 245 250 251 251 254
347 249 91 127 141 177 264 264 228 253 199 198 135 119 261 225 223 208 210 210 216 219 226 228 232 237 239 239 242 243 242 239 237 236 241 248 245 247 251 254 252 256 252 242 243 241 245 241 237
181 211 159 133 268 221 174 261 253 257 209 250 196 64 36 209 217 211 210 210 217 220 224 225 229 234 237 239 237 237 234 226 228 232 239 243 243 245 245 250 250 246 244 246 243 242 237 237 245
Height
1511 1509 1513 1514 1520 1520 1524 1511 1498 1493 1495 1499 1501 1502 1504 1506 1512 1524 1515 1523 1527 1530 1533 1538 1541 1544 1546 1549 1551 1553 1555 1556 1557 1557 1558 1558 1558 1558 1559 1560 1561 1562 1562 1564 1565 1566 1567 1567 1568
1506 1509 1514 1516 1520 1528 1519 1504 1506 1502 1501 1497 1498 1502 1504 1510 1511 1515 1519 1524 1529 1532 1534 1538 1542 1545 1547 1550 1552 1554 1555 1556 1557 1558 1559 1559 1558 1559 1560 1561 1563 1563 1564 1565 1567 1568 1568 1569 1571
1510 1509 1513 1515 1520 1524 1514 1499 1499 1497 1502 1496 1499 1502 1504 1511 1514 1517 1521 1525 1530 1534 1537 1540 1543 1546 1548 1551 1553 1555 1556 1557 1557 1559 1560 1560 1560 1561 1562 1563 1564 1565 1566 1567 1568 1569 1570 1571 1573
1512 1512 1516 1519 1519 1501 1496 1493 1497 1500 1499 1496 1498 1504 1507 1510 1510 1517 1521 1526 1530 1535 1538 1541 1544 1547 1549 1552 1554 1556 1557 1558 1558 1559 1561 1562 1562 1562 1563 1564 1565 1567 1568 1569 1570 1571 1572 1573 1575
1515 1515 1518 1517 1513 1497 1492 1488 1492 1493 1495 1498 1497 1508 1512 1516 1515 1517 1522 1526 1531 1536 1539 1542 1546 1548 1550 1552 1554 1557 1558 1559 1559 1560 1562 1562 1564 1564 1565 1565 1566 1568 1570 1571 1572 1573 1575 1576 1577
1515 1514 1529 1529 1513 1501 1493 1494 1494 1496 1499 1501 1503 1507 1515 1516 1518 1522 1523 1527 1533 1536 1540 1543 1547 1548 1550 1552 1554 1556 1558 1560 1560 1561 1562 1563 1564 1565 1566 1567 1568 1569 1571 1573 1573 1574 1576 1578 1579
1514 1517 1527 1531 1515 1513 1502 1499 1504 1499 1501 1503 1505 1511 1518 1520 1520 1523 1526 1531 1534 1538 1541 1543 1547 1549 1551 1553 1554 1556 1558 1560 1561 1562 1563 1564 1565 1566 1567 1568 1569 1570 1572 1573 1574 1576 1578 1580 1581
1511 1513 1519 1519 1517 1512 1503 1499 1502 1502 1502 1506 1504 1508 1515 1517 1522 1525 1529 1531 1534 1537 1541 1543 1546 1548 1550 1552 1554 1556 1558 1560 1561 1562 1563 1565 1566 1567 1568 1569 1570 1572 1573 1574 1575 1578 1579 1581 1582
1509 1519 1520 1512 1505 1513 1501 1497 1499 1504 1502 1503 1501 1501 1507 1513 1519 1524 1529 1532 1535 1538 1540 1542 1545 1547 1550 1552 1554 1556 1558 1560 1562 1562 1564 1565 1567 1568 1568 1570 1571 1573 1574 1575 1577 1579 1580 1582 1582
1508 1519 1507 1498 1497 1501 1502 1496 1496 1504 1506 1505 1503 1507 1509 1514 1517 1520 1527 1531 1535 1537 1539 1542 1544 1547 1549 1551 1553 1555 1557 1559 1561 1563 1564 1565 1567 1568 1569 1570 1572 1573 1575 1576 1578 1580 1580 1582 1584
1501 1506 1495 1492 1494 1496 1501 1505 1504 1506 1510 1508 1507 1509 1511 1514 1518 1519 1526 1528 1531 1536 1538 1541 1544 1547 1549 1551 1553 1555 1557 1559 1561 1563 1564 1565 1566 1568 1569 1570 1572 1574 1575 1576 1578 1580 1581 1582 1583
1499 1488 1489 1491 1490 1501 1506 1507 1510 1496 1495 1503 1508 1512 1512 1512 1515 1517 1523 1527 1530 1533 1536 1540 1543 1546 1548 1551 1553 1555 1557 1559 1561 1562 1564 1565 1566 1568 1568 1569 1571 1573 1575 1577 1578 1580 1581 1582 1584
1495 1488 1485 1483 1495 1495 1497 1492 1497 1497 1498 1504 1509 1512 1515 1514 1514 1517 1520 1524 1527 1530 1535 1538 1541 1544 1546 1549 1552 1554 1556 1558 1560 1561 1563 1564 1566 1567 1568 1569 1571 1573 1575 1577 1578 1580 1581 1583 1583
1490 1486 1481 1481 1485 1492 1496 1501 1499 1498 1498 1503 1507 1512 1516 1517 1514 1516 1520 1522 1524 1528 1531 1535 1539 1541 1545 1548 1549 1552 1555 1557 1559 1561 1562 1563 1565 1566 1568 1569 1571 1572 1573 1575 1577 1579 1581 1581 1582
1486 1489 1482 1480 1487 1493 1498 1510 1500 1500 1502 1502 1498 1504 1510 1514 1516 1514 1516 1520 1521 1523 1529 1533 1537 1539 1542 1545 1547 1551 1554 1556 1557 1558 1561 1562 1564 1566 1567 1568 1570 1571 1572 1573 1575 1576 1578 1579 1580
1488 1487 1498 1482 1481 1491 1488 1504 1493 1495 1498 1491 1492 1495 1500 1507 1511 1514 1516 1519 1523 1525 1527 1531 1534 1536 1540 1542 1545 1548 1551 1554 1555 1556 1558 1560 1562 1564 1565 1566 1568 1570 1571 1572 1573 1574 1576 1576 1577
1498 1513 1501 1488 1474 1483 1487 1490 1490 1491 1493 1490 1492 1494 1496 1502 1507 1509 1513 1517 1522 1523 1524 1527 1531 1533 1536 1540 1542 1546 1549 1550 1552 1554 1556 1558 1560 1562 1564 1565 1566 1568 1570 1571 1571 1573 1573 1573 1574
1513 1509 1498 1490 1476 1477 1480 1484 1487 1488 1490 1487 1489 1493 1493 1497 1501 1506 1509 1513 1517 1520 1522 1525 1527 1531 1534 1537 1540 1544 1547 1549 1549 1551 1554 1556 1558 1560 1562 1564 1565 1566 1567 1568 1569 1570 1569 1570 1572
1500 1502 1502 1485 1470 1476 1479 1479 1485 1485 1491 1491 1490 1486 1487 1491 1495 1501 1505 1509 1514 1516 1519 1521 1525 1529 1533 1535 1538 1541 1544 1546 1547 1548 1550 1554 1556 1558 1559 1561 1562 1563 1564 1565 1567 1568 1568 1569 1569
1492 1498 1494 1481 1467 1474 1476 1477 1479 1482 1479 1479 1483 1474 1480 1486 1491 1496 1500 1505 1508 1512 1515 1519 1522 1526 1529 1532 1534 1538 1541 1544 1545 1546 1548 1551 1553 1555 1557 1558 1559 1560 1561 1562 1564 1565 1566 1566 1567
1491 1497 1489 1487 1471 1464 1470 1484 1477 1480 1476 1481 1477 1473 1479 1481 1487 1491 1496 1500 1504 1508 1510 1513 1517 1520 1524 1527 1532 1535 1538 1540 1541 1542 1545 1547 1549 1551 1553 1555 1556 1558 1558 1560 1561 1562 1563 1564 1565
1506 1474 1477 1478 1487 1500 1470 1513 1481 1475 1472 1473 1471 1476 1476 1478 1484 1488 1492 1498 1501 1503 1508 1511 1513 1516 1521 1524 1526 1528 1530 1532 1535 1538 1541 1543 1545 1547 1549 1551 1553 1554 1556 1557 1558 1560 1561 1561 1562
1489 1472 1474 1472 1483 1487 1482 1500 1485 1474 1472 1471 1470 1464 1469 1475 1479 1484 1488 1492 1496 1501 1503 1506 1510 1513 1517 1519 1521 1524 1526 1528 1532 1535 1538 1540 1542 1544 1546 1548 1549 1550 1552 1554 1555 1556 1557 1558 1559
1470 1473 1476 1483 1493 1515 1490 1496 1493 1480 1470 1466 1465 1458 1461 1471 1477 1480 1484 1489 1492 1497 1499 1502 1505 1508 1511 1514 1517 1518 1520 1523 1527 1530 1533 1535 1538 1540 1541 1543 1545 1547 1548 1549 1551 1553 1554 1555 1556
1470 1494 1523 1524 1529 1524 1486 1497 1488 1463 1457 1455 1457 1457 1458 1463 1472 1477 1480 1483 1488 1490 1493 1496 1499 1501 1506 1508 1510 1513 1514 1517 1521 1525 1528 1531 1533 1534 1536 1538 1540 1541 1543 1545 1546 1548 1549 1550 1551
1477 1490 1523 1534 1536 1517 1486 1498 1480 1450 1442 1447 1450 1456 1461 1461 1466 1471 1473 1477 1481 1484 1487 1489 1492 1495 1499 1502 1505 1508 1510 1513 1516 1520 1524 1526 1527 1529 1531 1533 1535 1536 1537 1539 1541 1542 1544 1545 1546
1473 1488 1477 1503 1507 1523 1503 1477 1456 1452 1448 1446 1442 1448 1453 1458 1461 1464 1468 1472 1476 1479 1481 1484 1487 1490 1493 1496 1500 1503 1506 1509 1511 1516 1519 1521 1522 1523 1527 1528 1530 1531 1531 1532 1536 1537 1539 1540 1541
1464 1460 1490 1509 1516 1523 1513 1491 1488 1462 1453 1444 1446 1448 1450 1455 1462 1459 1463 1468 1472 1476 1477 1480 1484 1485 1488 1492 1495 1499 1502 1505 1508 1511 1514 1516 1517 1517 1520 1521 1523 1526 1527 1527 1530 1532 1533 1535 1536
1468 1473 1477 1491 1507 1522 1529 1508 1461 1453 1445 1440 1438 1439 1446 1451 1457 1455 1459 1463 1467 1472 1474 1477 1480 1482 1485 1489 1492 1494 1498 1502 1504 1506 1509 1510 1511 1513 1514 1518 1519 1521 1523 1524 1526 1527 1529 1530 1532
1455 1464 1471 1503 1501 1505 1505 1494 1445 1441 1440 1437 1438 1438 1435 1440 1446 1451 1456 1459 1463 1467 1470 1473 1476 1479 1482 1487 1490 1492 1495 1498 1500 1502 1504 1506 1507 1510 1512 1514 1516 1518 1519 1521 1522 1523 1525 1527 1528